| time (UTC) | temp F | wind direction | speed knots | gust knots | rain 1hr in | rain 24hr in | rain mn in | humidity % | barometer mb |
| 20260504003011 | 64 | 317 | 3.5 | 9.6 | 0.00 | 0.00 | 0.00 | 29 | 1004.0 |
| 20260504001511 | 65 | 317 | 7.8 | 13.0 | 0.00 | 0.00 | 0.00 | 28 | 1004.0 |
| 20260504000011 | 66 | 305 | 7.0 | 13.9 | 0.00 | 0.00 | 0.00 | 28 | 1003.9 |
| 20260503234516 | 66 | 303 | 8.7 | 15.6 | 0.00 | 0.00 | 0.00 | 28 | 1003.9 |
| 20260503233008 | 67 | 288 | 10.4 | 16.5 | 0.00 | 0.00 | 0.00 | 26 | 1003.8 |
| 20260503231506 | 68 | 290 | 7.0 | 14.8 | 0.00 | 0.00 | 0.00 | 28 | 1003.8 |
| 20260503230006 | 69 | 280 | 9.6 | 19.1 | 0.00 | 0.00 | 0.00 | 29 | 1003.7 |
| 20260503224505 | 69 | 269 | 4.3 | 15.6 | 0.00 | 0.00 | 0.00 | 30 | 1003.6 |
| 20260503223005 | 69 | 261 | 12.2 | 20.9 | 0.00 | 0.00 | 0.00 | 29 | 1003.6 |
| 20260503221503 | 70 | 311 | 9.6 | 15.6 | 0.00 | 0.00 | 0.00 | 31 | 1003.8 |
| 20260503220003 | 70 | 299 | 13.0 | 18.2 | 0.00 | 0.00 | 0.00 | 30 | 1003.7 |
| 20260503214508 | 70 | 277 | 9.6 | 20.9 | 0.00 | 0.00 | 0.00 | 32 | 1003.6 |
| 20260503213002 | 70 | 359 | 7.8 | 13.9 | 0.00 | 0.00 | 0.00 | 34 | 1003.5 |
| 20260503211614 | 71 | 26 | 7.8 | 13.9 | 0.00 | 0.00 | 0.00 | 34 | 1003.6 |
| 20260503210059 | 70 | 286 | 8.7 | 16.5 | 0.00 | 0.00 | 0.00 | 30 | 1003.7 |
| 20260503204559 | 70 | 302 | 10.4 | 20.9 | 0.00 | 0.00 | 0.00 | 33 | 1003.8 |
| 20260503203056 | 71 | 242 | 9.6 | 17.4 | 0.00 | 0.00 | 0.00 | 36 | 1003.8 |
| 20260503201554 | 69 | 317 | 9.6 | 18.2 | 0.00 | 0.00 | 0.00 | 37 | 1003.9 |
| 20260503194602 | 70 | 354 | 8.7 | 20.0 | 0.00 | 0.00 | 0.00 | 39 | 1004.3 |
| 20260503193101 | 70 | 23 | 9.6 | 20.0 | 0.00 | 0.00 | 0.00 | 38 | 1004.3 |
| 20260503191554 | 70 | 301 | 6.1 | 15.6 | 0.00 | 0.00 | 0.00 | 42 | 1004.3 |
| 20260503190049 | 68 | 333 | 10.4 | 17.4 | 0.00 | 0.00 | 0.00 | 39 | 1004.4 |
| 20260503184558 | 67 | 359 | 3.5 | 13.0 | 0.00 | 0.00 | 0.00 | 41 | 1004.4 |
| 20260503183044 | 68 | 275 | 7.0 | 13.9 | 0.00 | 0.00 | 0.00 | 43 | 1004.6 |
| 20260503181602 | 68 | 16 | 7.0 | 15.6 | 0.00 | 0.00 | 0.00 | 45 | 1004.7 |
| 20260503180051 | 67 | 300 | 8.7 | 13.9 | 0.00 | 0.00 | 0.00 | 43 | 1004.9 |
| 20260503174546 | 67 | 278 | 3.5 | 11.3 | 0.00 | 0.00 | 0.00 | 47 | 1005.0 |
| 20260503173049 | 66 | 252 | 7.0 | 13.0 | 0.00 | 0.00 | 0.00 | 46 | 1005.1 |
| 20260503171535 | 65 | 321 | 2.6 | 13.0 | 0.00 | 0.00 | 0.00 | 44 | 1005.2 |
| 20260503081541 | 52 | 191 | 2.6 | 7.0 | 0.00 | 0.00 | 0.00 | 62 | 1007.0 |
| 20260503071527 | 52 | 205 | 2.6 | 5.2 | 0.00 | 0.00 | 0.00 | 65 | 1007.6 |
| 20260503054516 | 53 | 215 | 1.7 | 6.1 | 0.00 | 0.00 | 0.00 | 63 | 1009.0 |
| 20260503053010 | 53 | 205 | 2.6 | 8.7 | 0.00 | 0.00 | 0.00 | 65 | 1009.3 |
| 20260503051515 | 54 | 295 | 1.7 | 9.6 | 0.00 | 0.00 | 0.00 | 65 | 1009.3 |
| 20260503050006 | 54 | 244 | 3.5 | 7.8 | 0.00 | 0.00 | 0.00 | 57 | 1009.3 |
| 20260503044504 | 54 | 221 | 2.6 | 7.0 | 0.00 | 0.00 | 0.00 | 57 | 1009.3 |
| 20260503043002 | 54 | 226 | 3.5 | 9.6 | 0.00 | 0.00 | 0.00 | 55 | 1009.5 |
| 20260503041502 | 54 | 244 | 4.3 | 7.8 | 0.00 | 0.00 | 0.00 | 55 | 1009.6 |
| 20260503040105 | 54 | 232 | 3.5 | 9.6 | 0.00 | 0.00 | 0.00 | 54 | 1009.7 |
| 20260503034604 | 54 | 234 | 5.2 | 9.6 | 0.00 | 0.00 | 0.00 | 55 | 1009.9 |
| 20260503033059 | 53 | 224 | 3.5 | 5.2 | 0.00 | 0.00 | 0.00 | 56 | 1010.0 |
| 20260503031556 | 54 | 207 | 5.2 | 6.1 | 0.00 | 0.00 | 0.00 | 57 | 1010.2 |
| 20260503030124 | 55 | 213 | 3.5 | 7.0 | 0.00 | 0.00 | 0.00 | 52 | 1010.5 |
| 20260503024554 | 54 | 244 | 2.6 | 7.0 | 0.00 | 0.00 | 0.00 | 51 | 1010.7 |
| 20260503023053 | 55 | 226 | 1.7 | 4.3 | 0.00 | 0.00 | 0.00 | 52 | 1010.6 |
| 20260503021559 | 54 | 228 | 2.6 | 5.2 | 0.00 | 0.00 | 0.00 | 52 | 1010.7 |
| 20260503020051 | 55 | 207 | 4.3 | 7.0 | 0.00 | 0.00 | 0.00 | 52 | 1010.5 |
| 20260503014602 | 55 | 215 | 5.2 | 7.0 | 0.00 | 0.00 | 0.00 | 51 | 1010.7 |
| 20260503013052 | 56 | 219 | 2.6 | 5.2 | 0.00 | 0.00 | 0.00 | 50 | 1010.8 |
| 20260503011554 | 56 | 212 | 2.6 | 4.3 | 0.00 | 0.00 | 0.00 | 50 | 1010.8 |
| 20260503010100 | 57 | 221 | 2.6 | 4.3 | 0.00 | 0.00 | 0.00 | 47 | 1010.9 |
| 20260503004546 | 58 | 220 | 2.6 | 5.2 | 0.00 | 0.00 | 0.00 | 44 | 1010.9 |